Regional Weather Roundup
Issued by NWS Upton, NY

Current Version | Previous Version | Graphics & Text | Print | Product List | Glossary Off
Versions: 1 2 3 4 5 6 7 8 9 10 11 12 13 14 15 16 17 18 19 20 21 22 23 24 25 26 27 28 29 30 31 32 33 34 35 36 37 38 39 40 41 42 43 44 45 46 47 48 49 50

000
ASUS41 KOKX 302305
RWROKX

REGIONAL WEATHER ROUNDUP
NATIONAL WEATHER SERVICE NEW YORK NY
700 PM EDT WED JUL 30 2014

NOTE: "FAIR" INDICATES FEW OR NO CLOUDS BELOW 12,000 FEET WITH NO
SIGNIFICANT WEATHER AND/OR OBSTRUCTIONS TO VISIBILITY.

NYZ071-072-176-178-NJZ106-104-310000-
NEW YORK CITY METRO AREA


CITY           SKY/WX    TMP DP  RH WIND       PRES   REMARKS
CENTRAL PARK   SUNNY     75  54  47 VRB3      30.03R
LAGUARDIA APRT MOSUNNY   76  53  44 S13       30.00R
KENNEDY INTL   MOSUNNY   75  57  53 S16       30.02R
NEWARK/LIBERTY MOSUNNY   79  50  36 W9        30.00R
BRNX BOT. GARD   N/A     77  54  44 NE3       30.03R
TETERBORO      SUNNY     79  50  36 W10       29.99R
$$

NYZ177-179-078>081-310000-
LONG ISLAND NEW YORK

CITY           SKY/WX    TMP DP  RH WIND       PRES   REMARKS
FARMINGDALE    SUNNY     73  55  53 SW10      30.02R
ISLIP          MOSUNNY   75  54  47 S10       30.01R
SHIRLEY        SUNNY     73  56  54 S10       30.03R
WESTHAMPTON    SUNNY     73  55  53 SW7       30.04R
MONTAUK POINT    N/A     73  60  63 VRB6      30.05R
$$

NYZ052-065-067-310000-
HUDSON VALLEY

CITY           SKY/WX    TMP DP  RH WIND       PRES   REMARKS
WHITE PLAINS   MOSUNNY   73  55  53 CALM      30.01R
NEWBURGH       MOSUNNY   75  57  53 W7        30.02R
MONTGOMERY     SUNNY     74  55  51 SW8       30.00S
POUGHKEEPSIE   SUNNY     76  54  46 VRB3      29.99R
ALBANY         MOSUNNY   75  52  44 S8        29.99S
$$

NJZ001-105-106-008-010-013-015-019>022-104-310000-
NEW JERSEY

CITY           SKY/WX    TMP DP  RH WIND       PRES   REMARKS
NEWARK/LIBERTY MOSUNNY   79  50  36 W9        30.00R
TETERBORO      SUNNY     79  50  36 W10       29.99R
CALDWELL       SUNNY     76  51  41 SW3       30.01R
MORRISTOWN     MOSUNNY   77  52  41 SW7       30.01S
SOMERVILLE     SUNNY     76  53  44 VRB3      30.00R
LINDEN         FAIR      79  50  36 NW8       30.02R
SUSSEX         SUNNY     76  56  49 CALM      30.01R
ANDOVER          N/A     73  55  53 SW3       30.02S
TRENTON        MOSUNNY   77  51  40 W5        30.01R
MILLVILLE      SUNNY     75  55  49 SW3       30.04R
ATLANTIC CITY  SUNNY     76  53  44 SW12      30.03R
WRIGHTSTOWN    SUNNY     75  55  49 SW5       30.00R
TOMS RIVER     MOSUNNY   75  59  57 S6        30.02S
BELMAR         SUNNY     73  57  56 S8        30.03R
$$

PAZ047>061-062-071-310000-
EASTERN PENNSYLVANIA

CITY           SKY/WX    TMP DP  RH WIND       PRES   REMARKS
PHILADELPHIA   MOSUNNY   78  53  41 SW12      30.03R
ALLENTOWN      SUNNY     74  53  48 W8        30.02R
SCRANTON       PTSUNNY   74  50  42 SW8       30.02R
$$

CTZ002-004>006-009-010-012-RIZ004-006-007-MAZ004-011-015-310000-
SOUTHERN NEW ENGLAND
 IN CT

CITY           SKY/WX    TMP DP  RH WIND       PRES   REMARKS
BRADLEY INTL   MOSUNNY   77  49  37 W7        29.99R
HARTFORD       SUNNY     77  46  33 W7        30.00R
DANBURY        SUNNY     74  50  42 SW6       30.03R
WTRBRY/OXFORD  MOSUNNY   73  52  46 CALM      30.05R
BRIDGEPORT     SUNNY     78  49  35 SW5       30.01R
MERIDEN        SUNNY     75  53  46 SW6       30.01R
NEW HAVEN      MOSUNNY   77  52  41 S3        30.01R
CHESTER        FAIR      72  54  53 SW6       30.04R
GROTON         SUNNY     72  52  49 SW7       30.01R
WILLIMANTIC    MOSUNNY   75  53  46 SW7       30.01R

 IN RI

CITY           SKY/WX    TMP DP  RH WIND       PRES   REMARKS
PROVIDENCE     MOSUNNY   74  52  46 SW8       30.02R
BLOCK ISLAND   SUNNY     72  57  60 SW8       30.04R
WESTERLY       SUNNY     74  54  49 S12       30.03R

 IN MA

CITY           SKY/WX    TMP DP  RH WIND       PRES   REMARKS
BOSTON         MOSUNNY   71  57  61 SE8       30.00R
WORCESTER      SUNNY     71  52  50 W6        30.03R
WESTFIELD      SUNNY     76  50  40 W5        30.00R
PROVINCETOWN   CLEAR     73  59  60 SW14      30.01R
NANTUCKET      CLEAR     69  61  75 SW6       30.03R
$$

ANZ330-335-338-340-345-350-353-355-310000-
COASTAL MARINE OBSERVATIONS


STATION/POSITION TIME  SKY/WX   TEMP    WIND        PRES    VSBY  WAVE
                                AIR SEA DIR/SP/G                  HT/PER
                 (UTC)          (F)     (DEG/KT/KT) (MB)    (MI)  (FT/S)
NY HARB ENTRANCE NOT AVBL
4S FIRE IS       NOT AVBL
23SW MTP         2300            72 71              1016.7          3/ 8
HUDSON CANYON    2300            74 76  230/  2/  4 1017.3          3/ 8
EXECUTION ROCKS  2300            75 70  200/ 12/ 14   N/A
WESTERN LI SOUND 2300            77     210/  6/  8   N/A           0
CENTRAL LI SOUND 2200            75 74  230/  4/  6   N/A           0
EASTERN LI SOUND 2200            73 68  210/ 10/ 12   N/A
ROBBINS REEF     2300            74     160/ 14/ 16   N/A
$$


>>>>>>>>>>>>>>>>>>>>>>>>>>>> KEY <<<<<<<<<<<<<<<<<<<<<<<<<<<
>                                                          <
>     SKY/WX - SKY CONDITION/PRESENT WEATHER               <
>     TMP    - TEMPERATURE IN FAHRENHEIT                   <
>     DP     - DEWPOINT IN FAHRENHEIT                      <
>     RH     - RELATIVE HUMIDITY IN PERCENT                <
>     WIND   - DIRECTION AND SPEED IN MPH                  <
>     PRES   - MEAN SEA LEVEL PRESSURE IN INCHES OF HG     <
>     WCI    - WIND CHILL INDEX                            <
>     VSB    - VISIBILITY IN MILES                         <
>     HX     - HEAT INDEX                                  <
>     TC     - TEMPERATURE IN CELSIUS                      <
>     VRB    - VARIABLE WIND DIRECTION                     <
>                                                          <
>>>>>>>>>>>>>>>>>>>>>>>>>>>> KEY <<<<<<<<<<<<<<<<<<<<<<<<<<<





USA.gov is the U.S. government's official web portal to all federal, state and local government web resources and services.